www.pogodaiklimat.ru

Погода и климат >> Архив погоды >> Россия >> Якутия >> Усть-Миль


ПОГОДА в Усть-Миле

  • Прогноз погоды в Усть-Миле
  • Монитор погоды в Усть-Миле
  • Климат города

АРХИВ ПОГОДЫ в Усть-Миле

Время (UTC), дата Ветер
(напр.,м/с)
 
Видим.   Явления Облачность Т
(С)
Тd
(С)
f
(%)
Тe
(С)
Тes
(С)
Комфортность P
(гПа)
Po
(гПа)
Тmin
(С)
Tmax
(С)
R
(мм)
R24
(мм)
S
(см)
09 10.12 З 1 50 км 10/0
[Cs]
-34.6 -36.8 80 -39 -39 опасность
обморожения
1042.8 1016.4 -30.6 0.0
12 10.12 штиль 0 50 км ясно -38.1 -40.3 80 -38 -38 опасность
обморожения
1045.3 1018.3
15 10.12 штиль 0 50 км ясно -39.9 -42.2 78 -40 -40 опасность
обморожения
1046.3 1019.3
18 10.12 штиль 0 50 км ясно -41.6 -43.8 79 -42 -42 опасность
обморожения
1047.6 1020.3
21 10.12 штиль 0 50 км ясно -42.3 -44.4 80 -42 -42 опасность
обморожения
1048.6 1021.1 -42.4 25
00 11.12 штиль 0 20 км дымка ясно -42.0 -44.4 77 -42 -42 опасность
обморожения
1049.1 1021.6
03 11.12 штиль 0 50 км ясно -39.1 -41.2 80 -39 -39 опасность
обморожения
1048.9 1021.9
06 11.12 штиль 0 50 км 10/0
[Cs]
-38.6 -40.8 80 -39 -39 опасность
обморожения
1048.3 1021.3
09 11.12 штиль 0 10 км слабый снег 10/0
[Cs]
-38.3 -40.3 81 -38 -38 опасность
обморожения
1048.4 1021.4 -38.3 0.0
12 11.12 штиль 0 50 км {снег} 10/0
[]
-39.1 -41.2 80 -39 -39 опасность
обморожения
1048.2 1021.2
15 11.12 штиль 0 50 км 10/0
[Cs]
-40.1 -42.8 75 -40 -40 опасность
обморожения
1047.4 1020.1
18 11.12 штиль 0 50 км 10/0
[Cs]
-41.5 -43.8 78 -42 -42 опасность
обморожения
1046.8 1019.5
21 11.12 штиль 0 50 км 10/0
[Cs]
-39.5 -41.7 79 -40 -40 опасность
обморожения
1046.2 1019.2 -41.5 0.0 25
00 12.12 ЮЗ 1 50 км 10/0
[Cs]
-36.6 -38.8 80 -41 -41 опасность
обморожения
1045.8 1019.0
03 12.12 З 1 50 км 10/0
[Cs]
-34.1 -36.5 79 -39 -38 опасность
обморожения
1044.9 1018.3
06 12.12 ЮЗ 1 50 км 10/0
[Cs]
-33.8 -36.2 79 -38 -38 опасность
обморожения
1044.3 1017.9
09 12.12 штиль 0 50 км 10/0
[Cs]
-33.4 -35.6 80 -33 -33 опасность
обморожения
1044.6 1018.2 -33.2
12 12.12 штиль 0 50 км 10/0
[Ci fib]
-33.6 -35.9 80 -34 -34 опасность
обморожения
1044.7 1018.3
15 12.12 штиль 0 50 км 10/0
[Cs]
-34.6 -36.8 80 -35 -35 опасность
обморожения
1044.9 1018.3
18 12.12 штиль 0 50 км 10/0
[Cs]
-32.6 -35.5 75 -33 -33 опасность
обморожения
1044.6 1018.2
21 12.12 штиль 0 50 км ясно -36.7 -39.4 76 -37 -37 опасность
обморожения
1044.9 1018.1 -36.7 25
00 13.12 штиль 0 50 км 10/0
[Ac trans Cs]
-35.1 -37.4 79 -35 -35 опасность
обморожения
1044.6 1018.0
03 13.12 штиль 0 50 км 6/0
[Ac trans]
-34.7 -37.4 76 -35 -34 опасность
обморожения
1043.2 1016.8
06 13.12 штиль 0 50 км 3/0
[Ac trans]
-36.3 -38.4 81 -36 -36 опасность
обморожения
1042.4 1015.7
09 13.12 штиль 0 50 км ясно -39.1 -41.2 80 -39 -39 опасность
обморожения
1042.5 1015.6 -34.6
12 13.12 штиль 0 50 км ясно -41.1 -43.2 80 -41 -41 опасность
обморожения
1041.6 1014.5
15 13.12 штиль 0 50 км ясно -42.3 -44.4 80 -42 -42 опасность
обморожения
1041.4 1014.0
18 13.12 штиль 0 50 км ясно -42.9 -45.0 80 -43 -43 опасность
обморожения
1040.8 1013.4
21 13.12 штиль 0 50 км ясно -43.1 -45.0 81 -43 -43 опасность
обморожения
1039.9 1012.5 -43.1 25
00 14.12 штиль 0 50 км ясно -43.1 -45.0 81 -43 -43 опасность
обморожения
1039.0 1011.8
03 14.12 штиль 0 50 км ясно -40.0 -42.8 74 -40 -40 опасность
обморожения
1037.9 1010.9
06 14.12 штиль 0 50 км 4/0
[Ac trans]
-38.7 -41.4 75 -39 -39 опасность
обморожения
1037.0 1010.2
09 14.12 штиль 0 50 км 6/0
[Ac trans]
-36.6 -38.8 80 -37 -37 опасность
обморожения
1036.3 1009.8 -36.6
12 14.12 штиль 0 50 км 10/0
[Cs]
-36.3 -39.0 76 -36 -36 опасность
обморожения
1035.6 1009.1
15 14.12 штиль 0 10 км слабый снег 10/0
[Cs]
-35.6 -38.4 75 -36 -36 опасность
обморожения
1035.2 1008.9
18 14.12 ЮЗ 1 10 км слабый снег 10/0
[Cs]
-35.1 -37.4 79 -40 -40 опасность
обморожения
1035.0 1008.7
21 14.12 Ю 1 10 км слабый снег 10/0
[Cs]
-34.6 -36.8 80 -39 -39 опасность
обморожения
1034.5 1008.2 -36.5 0.3 25
00 15.12 ЮЗ 1 50 км {снег} 10/0
[Ac trans Cs]
-36.8 -39.1 79 -42 -42 опасность
обморожения
1034.8 1008.3 -36.8
03 15.12 ЮЗ 1 20 км слабый снег 10/0
[Ac trans Cs]
-32.1 -34.4 80 -36 -36 опасность
обморожения
1033.8 1007.7
06 15.12 штиль 0 20 км слабый снег 10/0
[Ac trans Cs]
-31.0 -33.4 79 -31 -31 опасность
обморожения
1032.8 1007.1
09 15.12 Ю 1 10 км слабый снег 10/0
[Cs]
-29.9 -32.4 79 -34 -34 опасность
обморожения
1032.1 1006.6 -29.9 0.4
12 15.12 штиль 0 10 км слабый снег 10/0
[Cs]
-30.3 -32.8 79 -30 -30 1031.3 1005.6
15 15.12 штиль 0 10 км слабый снег 10/0
[Cs]
-32.6 -34.8 81 -33 -33 опасность
обморожения
1031.2 1005.2
18 15.12 штиль 0 10 км слабый снег 10/0
[Cs]
-30.9 -33.2 80 -31 -31 опасность
обморожения
1030.4 1004.7
21 15.12 штиль 0 10 км слабый снег 10/0
[Cs]
-33.1 -35.4 80 -33 -33 опасность
обморожения
1029.7 1003.7 -33.1 0.6 25
00 16.12 штиль 0 10 км слабый снег 10/0
[As op]
-31.6 -33.9 80 -32 -32 опасность
обморожения
1027.9 1002.3
03 16.12 ЮЗ 1 20 км слабый снег 10/0
[Ac trans Cs]
-28.4 -30.8 80 -32 -32 опасность
обморожения
1026.5 1001.1
06 16.12 З 2 20 км слабый снег 10/0
[Ac trans Cs]
-28.1 -30.5 80 -35 -35 опасность
обморожения
1025.3 999.9
09 16.12 ЮЗ 2 10 км слабый снег 10/0
[As op]
-28.1 -30.5 80 -35 -35 опасность
обморожения
1024.9 999.5 -27.7 1
12 16.12 штиль 0 10 км слабый снег 10/0
[Ac trans Cs]
-31.1 -33.4 80 -31 -31 опасность
обморожения
1024.3 998.7
15 16.12 З 1 10 км слабый снег 10/0
[Ac trans Cs]
-29.4 -31.8 80 -33 -33 опасность
обморожения
1023.1 997.7
18 16.12 ЮЗ 2 10 км слабый снег 10/0
[As op]
-29.1 -31.6 79 -36 -36 опасность
обморожения
1022.0 996.7
21 16.12 ЮЗ 1 10 км слабый снег 10/0
[As op]
-28.9 -31.4 79 -33 -33 опасность
обморожения
1021.0 995.7 -31.2 0.4 25
00 17.12 штиль 0 20 км слабый снег 10/0
[As op]
-28.7 -31.2 79 -29 -29 1020.3 995.0
03 17.12 З 1 20 км слабый снег 10/0
[Ac trans Cs]
-28.6 -31.0 80 -33 -32 опасность
обморожения
1019.9 994.6
06 17.12 СВ 1 50 км {снег} 10/0
[Cs]
-31.1 -33.4 80 -35 -35 опасность
обморожения
1020.1 994.6

 

Местоположение метеостанции Усть-Миль (Якутия, Россия): широта 59.63 долгота 133.00 высота над уровнем моря 179 м.

В архиве по умолчанию представлена погода в Усть-Миле за последнюю неделю. Архивные данные за месяц целиком и за предыдущие месяцы, начиная с января 2011 года, Вы можете получить, выбрав интересующий диапазон дат из раскрывающегося списка и нажав кнопку "Ввод!".

Внимание! Время в таблицах - всемирное. Для получения местного времени необходимо прибавить поправку, которая в Усть-Миле равна 9 ч.

Смотрите также архив погоды в соседних городах и на ближайших метеорологических станциях:

Погода в Усть-Мае (Якутия, Россия) (112 км)
Погода в Усть-Юдоме (Якутия, Россия) (129 км)
Погода в Амге (Якутия, Россия) (154 км)
Погода в Учуре (Якутия, Россия) (169 км)
Погода в Тегюльте (Якутия, Россия) (191 км)
Погода в Чюльбю (Якутия, Россия) (240 км)
Погода в Югоренке (Якутия, Россия) (259 км)
Погода в Чурапче (Якутия, Россия) (268 км)
Погода в Угино (Якутия, Россия) (280 км)
Погода в Охотском Перевозе (Якутия, Россия) (284 км)

Пояснения к столбцам:

Ветер - указаны скорость ветра в м/с - средняя за 10 мин, порывы в срок и между сроками (в фигурных скобках) и направление, откуда дует ветер: С - северный, СВ - северо-восточный, В - восточный, ЮВ - юго-восточный, Ю - южный, ЮЗ - юго-западный, З - западный, СЗ - северо-западный.
Видимость - горизонтальная дальность видимости в метрах или километрах. При видимости от 1 до 10 км при отсутствии осадков обычно наблюдается дымка, при ухудшении видимости до 1 км и менее - туман. В сухую погоду видимость может ухудшаться дымом, пылью или мглою.
Явления - указаны атмосферные явления, наблюдавшиеся в срок или в последний час перед сроком; фигурными скобками обозначены явления, наблюдавшиеся между сроками (за 1-3 часа до срока); квадратными скобками обозначены град или гололедные отложения с указанием их диаметра в мм.
Облачность - указаны через наклонную черту общая и нижняя облачность в баллах и высота нижней границы облаков в метрах; квадратными скобками обозначены формы облаков: Ci - перистые, Cs - перисто-слоистые, Cc - перисто-кучевые, Ac - высококучевые, As - высокослоистые, Sc - слоисто-кучевые, Ns - слоисто-дождевые, Cu - кучевые, Cb - кучево-дождевые. Подробнее классификацию облаков см. в Атласе облаков (PDF).
T - Температура воздуха - температура, измеренная на высоте 2 м над землей.
Td - Температура точки росы - температура, при понижении до которой содержащийся в воздухе водяной пар достигнет насыщения.
f - Относительная влажность воздуха - влажноcть воздуха, измеренная на высоте 2 м над землей.
Te - Эффективная температура - температура, которую ощущает одетый по сезону человек в тени. Характеристика душности погоды. При расчете учитывается влияние влажности воздуха и скорости ветра на теплоощущения человека.
Tes - Эффективная температура на солнце - температура, которую ощущает человек, с поправкой на солнечный нагрев. Характеристика знойности погоды. Зависит от высоты солнца над горизонтом, облачности и скорости ветра. Ночью, в пасмурную погоду, а также при ветре 12 м/с и более поправка равна нулю.
P - Атмосферное давление - приведенное к уровню моря атмосферное давление.
Po - Атмосферное давление - измеренное на уровне метеостанции атмосферное давление.
Tmin - Минимальная температура - минимум температуры воздуха на высоте 2 м над землей.
Tmax - Максимальная температура - максимум температуры воздуха на высоте 2 м над землей.
R - Количество осадков - Количество выпавших осадков за период времени, мм. При наведении курсора мыши на число - период времени, за который выпало указанное количество осадков.
R24 - Количество осадков - Количество выпавших осадков за 24 часа, мм.
S - Снежный покров - Высота снежного покрова, см. При наведении курсора мыши на число - состояние снежного покрова и степень покрытия местности в баллах.